Triuchirapalli, India

12:10 PM IST on May 24, 2017 (GMT +0530)
Tiruchirappalli

Weather History for VOTR - October, 2013

Change the Weather History Date:

Tuesday, October 1, 2013

  Actual Average Record
Temperature  
Mean Temperature 88 °F -  
Max Temperature 98 °F 86 °F 100 °F (2016)
Min Temperature 77 °F 76 °F 73 °F (2004)
Cooling Degree Days 22    
Growing Degree Days 38 (Base 50)    
Moisture  
Dew Point 71 °F    
Average Humidity 60    
Maximum Humidity 79    
Minimum Humidity 31    
Precipitation  
Precipitation 0.02 in - - ()
Sea Level Pressure  
Sea Level Pressure 29.70 in    
Wind  
Wind Speed 9 mph ()    
Max Wind Speed 18 mph    
Max Gust Speed 30 mph    
Visibility 4.0 miles    
Events Rain    
Averages and records for this station are not official NWS values.
T = Trace of Precipitation, MM = Missing Value Source: Averaged Metar Reports

Daily Weather History Graph

Daily Weather History Graph

Search for Another Location

Airport or City:

Trip Planner

Search our weather history database for the weather conditions in past years. The results will help you decide how hot, cold, wet, or windy it might be!

Date:

Astronomy

Oct. 01, 2013 Rise Set
Actual Time 6:03 AM IST 6:05 PM IST
Civil Twilight 5:42 AM IST 6:26 PM IST
Nautical Twilight 5:18 AM IST 6:51 PM IST
Astronomical Twilight 4:54 AM IST 7:15 PM IST
Moon 2:46 AM IST (10/1) 3:23 PM IST (10/1)
Length of Visible Light 12h 43m
Length of Day
12h 01m
Waning Crescent, 15% of the Moon is Illuminated
Oct 1
Waning Crescent
Oct 5
New
Oct 12
First Quarter
Oct 19
Full
Oct 27
Last Quarter

Hourly Weather History & Observations

Time (IST) Temp. Heat Index Dew Point Humidity Pressure Visibility Wind Dir Wind Speed Gust Speed Precip Events Conditions
12:10 AM 84.2 °F 87.3 °F 68.0 °F 58% 29.74 in 3.7 mi WNW 6.9 mph - N/A   Scattered Clouds
12:40 AM 82.4 °F 85.4 °F 68.0 °F 62% 29.71 in 3.7 mi West 6.9 mph - N/A   Scattered Clouds
1:10 AM 82.4 °F 86.3 °F 69.8 °F 66% 29.71 in 3.7 mi WNW 11.5 mph - N/A   Scattered Clouds
1:40 AM 82.4 °F 86.3 °F 69.8 °F 66% 29.71 in 3.7 mi WNW 9.2 mph - N/A   Scattered Clouds
2:10 AM 82.4 °F 86.3 °F 69.8 °F 66% 29.68 in 3.7 mi WNW 9.2 mph - N/A   Scattered Clouds
2:30 AM 81 °F - 70 °F 62% 29.67 in 2 mi WNW 9.2 mph - -   Haze
2:40 AM 80.6 °F 83.9 °F 69.8 °F 70% 29.68 in 3.7 mi WNW 9.2 mph - N/A   Partly Cloudy
3:10 AM 80.6 °F 83.9 °F 69.8 °F 70% 29.68 in 3.7 mi West 13.8 mph - N/A   Partly Cloudy
3:40 AM 80.6 °F 83.9 °F 69.8 °F 70% 29.68 in 3.7 mi West 9.2 mph - N/A   Partly Cloudy
4:10 AM 80.6 °F 83.9 °F 69.8 °F 70% 29.68 in 3.7 mi West 9.2 mph - N/A   Partly Cloudy
4:40 AM 80.6 °F 83.9 °F 69.8 °F 70% 29.68 in 3.7 mi West 9.2 mph - N/A   Partly Cloudy
5:10 AM 80.6 °F 83.9 °F 69.8 °F 70% 29.68 in 3.7 mi West 9.2 mph - N/A   Partly Cloudy
5:30 AM 79 °F - 69 °F 65% 29.70 in 2 mi WNW 11.5 mph - -   Haze
5:40 AM 78.8 °F - 69.8 °F 74% 29.71 in 3.7 mi WNW 11.5 mph - N/A   Partly Cloudy
6:40 AM 80.6 °F 83.2 °F 68.0 °F 65% 29.71 in 3.7 mi WNW 11.5 mph - N/A   Partly Cloudy
7:10 AM 80.6 °F 83.9 °F 69.8 °F 70% 29.74 in 3.7 mi WNW 8.1 mph - N/A   Partly Cloudy
7:40 AM 80.6 °F 83.9 °F 69.8 °F 70% 29.74 in 3.7 mi West 9.2 mph - N/A   Partly Cloudy
8:10 AM 82.4 °F 86.3 °F 69.8 °F 66% 29.74 in 3.7 mi West 18.4 mph 29.9 mph N/A   Partly Cloudy
8:30 AM 83 °F - 70 °F 57% 29.76 in 2 mi WNW 13.8 mph - -   Haze
8:40 AM 82.4 °F 86.3 °F 69.8 °F 66% 29.74 in 3.7 mi WNW 16.1 mph - N/A   Partly Cloudy
9:10 AM 84.2 °F 89.6 °F 71.6 °F 66% 29.77 in 3.7 mi WNW 13.8 mph - N/A   Partly Cloudy
9:40 AM 86.0 °F 91.8 °F 71.6 °F 62% 29.74 in 3.7 mi West 12.7 mph - N/A   Partly Cloudy
10:10 AM 86.0 °F 91.8 °F 71.6 °F 62% 29.74 in 5.0 mi West 10.4 mph - N/A   Partly Cloudy
10:40 AM 87.8 °F 92.6 °F 69.8 °F 55% 29.74 in 5.0 mi West 10.4 mph - N/A   Partly Cloudy
11:10 AM 89.6 °F 94.7 °F 69.8 °F 52% 29.71 in 5.0 mi WNW 10.4 mph - N/A   Partly Cloudy
11:30 AM 94 °F - 67 °F 31% 29.71 in 2 mi NW 15.0 mph - -   Haze
11:40 AM 91.4 °F 95.4 °F 68.0 °F 46% 29.71 in 5.0 mi NW 17.3 mph - N/A   Partly Cloudy
12:10 PM 93.2 °F 98.8 °F 69.8 °F 46% 29.71 in 5.0 mi WNW 12.7 mph - N/A   Partly Cloudy
12:40 PM 93.2 °F 97.7 °F 68.0 °F 44% 29.68 in 5.0 mi NW 17.3 mph - N/A   Partly Cloudy
1:10 PM 95.0 °F 99.5 °F 68.0 °F 41% 29.68 in 5.0 mi NNW 12.7 mph - N/A   Partly Cloudy
1:40 PM 96.8 °F 101.8 °F 68.0 °F 39% 29.65 in 5.0 mi WNW 15.0 mph - N/A   Partly Cloudy
2:10 PM 96.8 °F 101.8 °F 68.0 °F 39% 29.62 in 6.2 mi North 17.3 mph - N/A   Scattered Clouds
2:40 PM 96.8 °F 103.1 °F 69.8 °F 41% 29.62 in 6.2 mi WNW 10.4 mph - N/A   Scattered Clouds
3:10 PM 98.6 °F 105.5 °F 69.8 °F 39% 29.62 in 6.2 mi NNW 18.4 mph - N/A   Scattered Clouds
3:40 PM 96.8 °F 105.1 °F 71.6 °F 44% 29.62 in 6.2 mi WNW 11.5 mph - N/A   Scattered Clouds
4:10 PM 96.8 °F 105.1 °F 71.6 °F 44% 29.59 in 6.2 mi NNW 8.1 mph - N/A   Scattered Clouds
4:40 PM 96.8 °F 105.1 °F 71.6 °F 44% 29.62 in 6.2 mi NW 4.6 mph - N/A   Scattered Clouds
5:10 PM 95.0 °F 103.2 °F 71.6 °F 47% 29.62 in 6.2 mi NNW 5.8 mph - N/A   Scattered Clouds
5:30 PM 96 °F - 69 °F 32% 29.61 in 6 mi NW 4.6 mph - -   Partly Cloudy
5:40 PM 95.0 °F 103.2 °F 71.6 °F 47% 29.62 in 5.0 mi NW 3.5 mph - N/A   Scattered Clouds
6:10 PM 93.2 °F 100.5 °F 71.6 °F 49% 29.65 in 5.0 mi North 4.6 mph - N/A   Scattered Clouds
6:40 PM 93.2 °F 102.4 °F 73.4 °F 52% 29.65 in 5.0 mi SSE 12.7 mph - N/A   Scattered Clouds
7:10 PM 91.4 °F 100.1 °F 73.4 °F 55% 29.68 in 3.7 mi SW 9.2 mph - N/A   Scattered Clouds
7:40 PM 86.0 °F 95.1 °F 75.2 °F 70% 29.71 in 2.5 mi SSW 8.1 mph - N/A   Light Drizzle
8:30 PM 83 °F - 76 °F 73% 29.73 in 1 mi South 5.8 mph - - Rain Light Drizzle
8:40 PM 84.2 °F 92.3 °F 75.2 °F 74% 29.74 in 3.1 mi South 5.8 mph - N/A   Haze
9:10 PM 82.4 °F 89.5 °F 75.2 °F 79% 29.74 in 3.1 mi South 6.9 mph - N/A   Haze
9:40 PM 82.4 °F 89.5 °F 75.2 °F 79% 29.77 in 3.1 mi SSE 6.9 mph - N/A   Haze
10:10 PM 82.4 °F 89.5 °F 75.2 °F 79% 29.77 in 3.1 mi South 6.9 mph - N/A   Haze
10:40 PM 82.4 °F 89.5 °F 75.2 °F 79% 29.77 in 3.1 mi South 3.5 mph - N/A   Haze
11:10 PM 82.4 °F 89.5 °F 75.2 °F 79% 29.77 in 3.1 mi Variable 2.3 mph - N/A   Haze
11:30 PM 83 °F - 73 °F 65% 29.77 in 1 mi West 3.5 mph - -   Haze
11:40 PM 82.4 °F 88.2 °F 73.4 °F 74% 29.77 in 3.1 mi West 3.5 mph - N/A   Haze